Flag for Germany Weather past 2 weeks in Ratingen, North Rhine-Westphalia, Germany

39 °F

Passing clouds.

Feels Like: 39 °F
Forecast: 33 / 42 °F
Wind: No wind

Location: Duesseldorf

Current Time: Nov 26, 2015 at 6:14:19 PM

Latest Report: Nov 26, 2015 at 5:50 PM

Visibility: N/A

Pressure: 30.12 "Hg

Humidity: 93%

Dew point: 37 °F

Location of RatingenLocation

Historic Weather in Ratingen — Graph


Ratingen temperature yesterday

Maximum temperature yesterday: 46 °F (at 2:20 PM)
Minimum temperature yesterday: 36 °F (at 12:20 AM)
Average temperature yesterday: 41 °F

Past Weeks' High & Low Weather Summary

High61 °F (Nov 15, 11:50 AM)100% (Nov 14, 10:50 PM)30.30 "Hg (Nov 14, 10:50 PM)
Low32 °F (Nov 22, 7:20 AM)59% (Nov 18, 3:20 AM)29.39 "Hg (Nov 21, 7:20 AM)
Average48 °F82%29.92 "Hg
* Reported Nov 11 4:20 PM — Nov 26 4:50 PM, Ratingen, Weather by CustomWeather, © 2015

Note: Actual official high and low records may vary slightly from our data, if they occured in-between our weather recording intervals... More about our weather records


Ratingen weather history for previous 24 hours

Time TempWeatherWind HumidityBarometerVisibility
4:50 PM
Thu, Nov 26
43 °FPassing clouds.5 mph81%30.09 "HgN/A
4:20 PM45 °FPassing clouds.5 mph81%30.09 "HgN/A
3:50 PM46 °FPassing clouds.5 mph71%30.09 "HgN/A
3:20 PM48 °FScattered clouds.5 mph66%30.09 "HgN/A
2:50 PM48 °FScattered clouds.5 mph71%30.07 "HgN/A
2:20 PM46 °FScattered clouds.5 mph76%30.07 "HgN/A
1:50 PM46 °FPassing clouds.2 mph76%30.07 "HgN/A
1:20 PM46 °FPassing clouds.2 mph76%30.07 "HgN/A
12:50 PM46 °FPassing clouds.2 mph76%30.07 "HgN/A
12:20 PM45 °FPassing clouds.No wind76%30.07 "HgN/A
11:50 AM45 °FPassing clouds.3 mph76%30.07 "HgN/A
11:20 AM43 °FPassing clouds.3 mph81%30.04 "HgN/A
10:50 AM43 °FPassing clouds.1 mph81%30.04 "HgN/A
10:20 AM41 °FPassing clouds.No wind87%30.01 "HgN/A
9:50 AM37 °FPassing clouds.No wind93%30.01 "HgN/A
9:20 AM36 °FFog.No wind93%30.01 "HgN/A
8:50 AM34 °FFog.No wind100%29.98 "HgN/A
8:20 AM34 °FFog.2 mph93%29.98 "HgN/A
7:50 AM36 °FFog.5 mph100%29.95 "HgN/A
7:20 AM36 °FFog.6 mph100%29.95 "HgN/A
6:50 AM36 °FPassing clouds.5 mph100%29.92 "HgN/A
6:20 AM37 °FPassing clouds.5 mph93%29.92 "HgN/A
5:50 AM37 °FPassing clouds.6 mph93%29.92 "HgN/A
5:20 AM36 °FFog.6 mph100%29.89 "HgN/A
4:50 AM36 °FFog.3 mph100%29.89 "HgN/A
4:20 AM36 °FFog.No wind100%29.89 "HgN/A
3:50 AM36 °FPassing clouds.No wind100%29.86 "HgN/A
3:20 AM37 °FPassing clouds.3 mph100%29.86 "HgN/A
2:50 AM37 °FPassing clouds.5 mph100%29.86 "HgN/A
2:20 AM39 °FPassing clouds.6 mph93%29.83 "HgN/A
1:20 AM39 °FPassing clouds.6 mph93%29.83 "HgN/A
12:50 AM39 °FPassing clouds.6 mph93%29.83 "HgN/A
12:20 AM41 °FPassing clouds.5 mph87%29.80 "HgN/A
11:50 PM
Wed, Nov 25
41 °FPassing clouds.3 mph93%29.80 "HgN/A
11:20 PM41 °FPassing clouds.6 mph93%29.80 "HgN/A
10:50 PM41 °FPartly cloudy.6 mph93%29.80 "HgN/A
10:20 PM41 °FPartly cloudy.6 mph93%29.80 "HgN/A
9:50 PM41 °FPartly cloudy.6 mph93%29.77 "HgN/A
9:20 PM41 °FSprinkles. Passing clouds.7 mph93%29.77 "HgN/A
8:50 PM41 °FSprinkles. Passing clouds.5 mph93%29.77 "HgN/A
8:20 PM41 °FSprinkles. Passing clouds.8 mph93%29.77 "HgN/A
7:50 PM41 °FPassing clouds.6 mph93%29.74 "HgN/A
7:20 PM39 °FFog.5 mph100%29.74 "HgN/A
6:50 PM39 °FFog.5 mph93%29.74 "HgN/A
6:20 PM37 °FFog.5 mph100%29.71 "HgN/A
Weather by CustomWeather, © 2015

See weather overviewHow to use our weather pages